Date of measurement,Time of measurement,DO (mg/L)
Date,Time,Dissolved oxygen
Units: Year month day,Units: Hour minute,Units: milligrams per litre
2012-05-11,08:34,10.96
2012-05-11,09:04,10.86
2012-05-11,09:34,10.78
2012-05-11,10:04,10.72
2012-05-11,10:34,10.65
2012-05-11,11:04,10.58
2012-05-11,11:34,10.54
2012-05-11,12:04,10.5
2012-05-11,12:34,10.47
2012-05-11,13:04,10.41
2012-05-11,13:34,10.38
2012-05-11,14:04,10.36
2012-05-11,14:34,10.34
2012-05-11,15:04,10.31
2012-05-11,15:34,10.28
2012-05-11,16:04,10.25
2012-05-11,16:34,15.09
2012-05-11,17:04,14.33
2012-05-11,17:34,13.88
2012-05-11,18:04,13.07
2012-05-11,18:34,12.25
2012-05-11,19:04,11.2
2012-05-11,19:34,9.94
2012-05-11,20:04,8.97
2012-05-11,20:34,8.22
2012-05-11,21:04,7.84
2012-05-11,21:34,7.67
2012-05-11,22:04,7.61
2012-05-11,22:34,7.53
2012-05-11,23:04,7.53
2012-05-11,23:34,7.57
2012-05-12,00:04,7.57
2012-05-12,00:34,7.57
2012-05-12,01:04,7.61
2012-05-12,01:34,7.59
2012-05-12,02:04,7.62
2012-05-12,02:34,7.64
2012-05-12,03:04,7.67
2012-05-12,03:34,7.66
2012-05-12,04:04,7.69
2012-05-12,04:34,7.76
2012-05-12,05:04,8.11
2012-05-12,05:34,8.73
2012-05-12,06:04,9.59
2012-05-12,06:34,11.12
2012-05-12,07:04,12.74
2012-05-12,07:34,13.79
2012-05-12,08:04,15.43
2012-05-12,08:34,16.31
2012-05-12,09:04,16.92
2012-05-12,09:34,17.22
2012-05-12,10:04,17.87
2012-05-12,10:34,17.73
2012-05-12,11:04,18.07
2012-05-12,11:34,17.88
2012-05-12,12:04,17.58
2012-05-12,12:34,18.2
2012-05-12,13:04,17.84
2012-05-12,13:34,17.99
2012-05-12,14:04,18.21
2012-05-12,14:34,18.07
2012-05-12,15:04,18.44
2012-05-12,15:34,17.11
2012-05-12,16:04,15.71
2012-05-12,16:34,15.66
2012-05-12,17:04,15.1
2012-05-12,17:34,14.58
2012-05-12,18:04,13.9
2012-05-12,18:34,13.08
2012-05-12,19:04,11.72
2012-05-12,19:34,10.31
2012-05-12,20:04,9.15
2012-05-12,20:34,8.34
2012-05-12,21:04,7.9
2012-05-15,10:34,19.79
2012-05-15,11:04,20.26
2012-05-15,11:34,19.67
2012-05-15,12:04,20.55
2012-05-15,12:34,20.87
2012-05-15,13:04,20.56
2012-05-15,13:34,20.51
2012-05-15,14:04,20.52
2012-05-15,14:34,20.45
2012-05-15,15:04,20.54
2012-05-15,15:34,18.73
2012-05-15,16:04,18.55
2012-05-15,16:34,17.97
2012-05-15,17:04,17.95
2012-05-15,17:34,17.2
2012-05-15,18:04,15.41
2012-05-15,18:34,13.22
2012-05-15,19:04,11.5
2012-05-15,19:34,10.01
2012-05-15,20:04,8.92
2012-05-15,20:34,8.09
2012-05-15,21:04,7.51
2012-05-15,21:34,7.16
2012-05-15,22:04,6.96
2012-05-15,22:34,6.87
2012-05-15,23:04,6.83
2012-05-15,23:34,6.82
2012-05-16,00:04,6.82
2012-05-16,00:34,6.83
2012-05-16,01:04,6.85
2012-05-16,01:34,6.87
2012-05-16,02:04,6.9
2012-05-16,02:34,6.94
2012-05-16,03:04,6.97
2012-05-16,03:34,6.99
2012-05-16,04:04,7.02
2012-05-16,04:34,7.12
2012-05-16,05:04,7.53
2012-05-16,05:34,8.22
2012-05-16,06:04,9.32
2012-05-16,06:34,11.44
2012-05-16,07:04,13.65
2012-05-16,07:34,15.37
2012-05-16,08:04,16.96
2012-05-16,08:34,18.22
2012-05-16,09:04,18.84
2012-05-16,09:34,19.49
2012-05-16,10:04,19.84
2012-05-16,10:34,19.84
2012-05-16,11:04,20.33
2012-05-16,11:34,20.17
2012-05-16,12:04,19.98
2012-05-16,12:34,19.43
2012-05-16,13:04,19.53
2012-05-16,13:34,19.93
2012-05-16,14:04,20.27
2012-05-16,14:34,20.65
2012-05-16,15:04,20.15
2012-05-16,15:34,19.75
2012-05-16,16:04,19.17
2012-05-16,16:34,19.13
2012-05-16,17:04,18.09
2012-05-16,17:34,17.21
2012-05-16,18:04,15.01
2012-05-16,18:34,13.88
2012-05-16,19:04,12.44
2012-05-16,19:34,10.92
2012-05-16,20:04,9.53
2012-05-16,20:34,8.4
2012-05-16,21:04,7.65
2012-05-16,21:34,7.17
2012-05-16,22:04,6.89
2012-05-16,22:34,6.75
2012-05-16,23:04,6.65
2012-05-16,23:34,6.62
2012-05-17,00:04,6.58
2012-05-17,00:34,6.57
2012-05-17,01:04,6.59
2012-05-17,01:34,6.6
2012-05-17,02:04,6.59
2012-05-17,02:34,6.58
2012-05-17,03:04,6.62
2012-05-17,03:34,6.65
2012-05-17,04:04,6.63
2012-05-17,04:34,6.65
2012-05-17,05:04,6.84
2012-05-17,05:34,7.28
2012-05-17,06:04,8.01
2012-05-17,06:34,9.03
2012-05-17,07:04,10.24
2012-05-17,07:34,11.54
2012-05-17,08:04,12.94
2012-05-17,08:34,13.59
2012-05-17,09:04,14.37
2012-05-17,09:34,15.74
2012-05-17,10:04,17.09
2012-05-17,10:34,18.34
2012-05-17,11:04,18.6
2012-05-17,11:34,19.07
2012-05-17,12:04,19.48
2012-05-17,12:34,20.09
2012-05-17,13:04,20.06
2012-05-17,13:34,20.63
2012-05-17,14:04,20.46
2012-05-17,14:34,20.42
2012-05-17,15:04,20.08
2012-05-17,15:34,19.63
2012-05-17,16:04,18.15
2012-05-17,16:34,17.1
2012-05-17,17:04,16.46
2012-05-17,17:34,15.63
2012-05-17,18:04,14.54
2012-05-17,18:34,13.41
2012-05-17,19:04,12.11
2012-05-17,19:34,10.68
2012-05-17,20:04,9.37
2012-05-17,20:34,8.33
2012-05-17,21:04,7.6
2012-05-17,21:34,7.15
2012-05-17,22:04,6.88
2012-05-17,22:34,6.71
2012-05-17,23:04,6.59
2012-05-17,23:34,6.52
2012-05-18,00:04,6.45
2012-05-18,00:34,6.46
2012-05-18,01:04,6.46
2012-05-18,01:34,6.48
2012-05-18,02:04,6.47
2012-05-18,02:34,6.48
2012-05-18,03:04,6.51
2012-05-18,03:34,6.46
2012-05-18,04:04,6.47
2012-05-18,04:34,6.55
2012-05-18,05:04,6.94
2012-05-18,05:34,7.79
2012-05-18,06:04,9.29
2012-05-18,06:34,10.94
2012-05-18,07:04,12.08
2012-05-18,07:34,12.56
2012-05-18,08:04,12.64
2012-05-18,08:34,12.65
2012-05-18,09:04,13.08
2012-05-18,09:34,13.96
2012-05-18,10:04,15.18
2012-05-18,10:34,15.86
2012-05-18,11:04,16.1
2012-05-18,11:34,16.67
2012-05-18,12:04,16.59
2012-05-18,12:34,16.28
2012-05-18,13:04,17.05
2012-05-18,13:34,17.37
2012-05-18,14:04,17.09
2012-05-18,14:34,16.46
2012-05-18,15:04,15.35
2012-05-18,15:34,14.74
2012-05-18,16:04,14.12
2012-05-18,16:34,13.16
2012-05-18,17:04,12
2012-05-18,17:34,10.88
2012-05-18,18:04,9.93
2012-05-18,18:34,8.96
2012-05-18,19:04,8.28
2012-05-18,19:34,7.74
2012-05-18,20:04,7.26
2012-05-18,20:34,6.89
2012-05-18,21:04,6.62
2012-05-18,21:34,6.46
2012-05-18,22:04,6.35
2012-05-18,22:34,6.29
2012-05-18,23:04,6.26
2012-05-18,23:34,6.25
2012-05-19,00:04,6.26
2012-05-19,00:34,6.28
2012-05-19,01:04,6.28
2012-05-19,01:34,6.3
2012-05-19,02:04,6.32
2012-05-19,02:34,6.33
2012-05-19,03:04,6.35
2012-05-19,03:34,6.36
2012-05-19,04:04,6.4
2012-05-19,04:34,6.4
2012-05-19,05:04,6.65
2012-05-19,05:34,7.43
2012-05-19,06:04,8.73
2012-05-19,06:34,10.09
2012-05-19,07:04,11.92
2012-05-19,07:34,14.1
2012-05-19,08:04,16.12
2012-05-19,08:34,17.28
2012-05-19,09:04,18.41
2012-05-19,09:34,18.81
2012-05-19,10:04,18.42
2012-05-19,10:34,16.61
2012-05-19,11:04,15.35
2012-05-19,11:34,14.31
2012-05-19,12:04,14.11
2012-05-19,12:34,14.46
2012-05-19,13:04,14.71
2012-05-19,13:34,16.17
2012-05-19,14:04,17.57
2012-05-19,14:34,18.76
2012-05-19,15:04,19.25
2012-05-19,15:34,18.77
2012-05-19,16:04,17.57
2012-05-19,16:34,15.85
2012-05-19,17:04,14.37
2012-05-19,17:34,13.99
2012-05-19,18:04,13.37
2012-05-19,18:34,12.43
2012-05-19,19:04,11.09
2012-05-19,19:34,9.7
2012-05-19,20:03,8.6
2012-05-19,20:34,7.6
2012-05-19,21:04,7
2012-05-19,21:34,6.6
2012-05-19,22:04,6.39
2012-05-19,22:34,6.27
2012-05-19,23:04,6.19
2012-05-19,23:34,6.15
2012-05-20,00:04,6.12
2012-05-20,00:34,6.11
2012-05-20,01:04,6.11
2012-05-20,01:34,6.1
2012-05-20,02:04,6.13
2012-05-20,02:34,6.1
2012-05-20,03:04,6.09
2012-05-20,03:34,6.1
2012-05-20,04:04,6.13
2012-05-20,04:34,6.15
2012-05-20,05:04,6.26
2012-05-20,05:34,6.56
2012-05-20,06:04,7.06
2012-05-20,06:34,7.77
2012-05-20,07:04,8.37
2012-05-20,07:34,9.53
2012-05-20,08:04,11
2012-05-20,08:34,12.65
2012-05-20,09:04,13.71
2012-05-20,09:34,14.52
2012-05-20,10:04,14.91
2012-05-20,10:34,16.41
2012-05-20,11:04,17.49
2012-05-20,11:34,18.31
2012-05-20,12:04,18.53
2012-05-20,12:34,19.09
2012-05-20,13:04,19.16
2012-05-20,13:34,18.59
2012-05-20,14:04,17.95
2012-05-20,14:34,17.55
2012-05-20,15:04,16.97
2012-05-20,15:34,16.33
2012-05-20,16:04,15.92
2012-05-20,16:34,15.46
2012-05-20,17:04,14.53
2012-05-20,17:34,13.42
2012-05-20,18:04,12.33
2012-05-20,18:34,11.7
2012-05-20,19:04,11
2012-05-20,19:34,9.96
2012-05-20,20:04,8.86
2012-05-20,20:34,7.95
2012-05-20,21:04,7.28
2012-05-20,21:34,6.82
2012-05-20,22:04,6.54
2012-05-20,22:34,6.37
2012-05-20,23:04,6.3
2012-05-20,23:34,6.23
2012-05-21,00:04,6.2
2012-05-21,00:34,6.21
2012-05-21,01:04,6.18
2012-05-21,01:34,6.18
2012-05-21,02:04,6.18
2012-05-21,02:34,6.17
2012-05-21,03:04,6.17
2012-05-21,03:34,6.17
2012-05-21,04:04,6.16
2012-05-21,04:34,6.23
2012-05-21,05:04,6.52
2012-05-21,05:34,7.01
2012-05-21,06:04,7.91
2012-05-21,06:34,9.78
2012-05-21,07:04,11.57
2012-05-21,07:34,12.46
2012-05-21,08:04,13.05
2012-05-21,08:34,13.45
2012-05-21,09:04,14.06
2012-05-21,09:34,15.15
2012-05-21,10:04,16.36
2012-05-21,10:34,17.05
2012-05-21,11:04,17.69
2012-05-21,11:34,19.25
2012-05-21,12:04,19.65
2012-05-21,12:34,19.63
2012-05-21,13:04,20.11
2012-05-21,13:34,20.03
2012-05-21,14:04,19.77
2012-05-21,14:34,20.16
2012-05-21,15:04,19.71
2012-05-21,15:34,19.33
2012-05-21,16:04,18.35
2012-05-21,16:34,16.97
2012-05-21,17:04,15.8
2012-05-21,17:34,14.93
2012-05-21,18:04,14.18
2012-05-21,18:34,13.36
2012-05-21,19:04,12.3
2012-05-21,19:34,10.86
2012-05-21,20:04,9.34
2012-05-21,20:34,8.05
2012-05-21,21:04,7.11
2012-05-21,21:34,6.5
2012-05-21,22:04,6.14
2012-05-21,22:34,5.96
2012-05-21,23:04,5.87
2012-05-21,23:34,5.82
2012-05-22,00:04,5.82
2012-05-22,00:34,5.83
2012-05-22,01:04,5.84
2012-05-22,01:34,5.87
2012-05-22,02:04,5.9
2012-05-22,02:34,5.91
2012-05-22,03:04,5.94
2012-05-22,03:34,5.95
2012-05-22,04:04,5.95
2012-05-22,04:34,6.05
2012-05-22,05:04,6.43
2012-05-22,05:34,7.14
2012-05-22,06:04,8.12
2012-05-22,06:34,9.7
2012-05-22,07:04,11.46
2012-05-22,07:34,13.09
2012-05-22,08:04,14.49
2012-05-22,08:34,15.56
2012-05-22,09:04,16.44
2012-05-22,09:34,17.22
2012-05-22,10:04,17.56
2012-05-22,10:34,18.14
2012-05-22,11:04,18.78
2012-05-22,11:34,19.01
2012-05-22,12:04,19.02
2012-05-22,12:34,18.43
2012-05-22,13:04,19.08
2012-05-22,13:34,19.1
2012-05-22,14:04,18.49
2012-05-22,14:34,18.74
2012-05-22,15:04,18.24
2012-05-22,15:34,17.93
2012-05-22,16:04,17.24
2012-05-22,16:34,16.4
2012-05-22,17:04,15.44
2012-05-22,17:34,14.57
2012-05-22,18:04,13.42
2012-05-22,18:34,12.07
2012-05-22,19:04,10.6
2012-05-22,19:34,9.21
2012-05-22,20:04,7.96
2012-05-22,20:34,6.91
2012-05-22,21:04,6.17
2012-05-22,21:34,5.71
2012-05-22,22:04,5.44
2012-05-22,22:34,5.33
2012-05-22,23:04,5.26
2012-05-22,23:34,5.27
2012-05-23,00:04,5.29
2012-05-23,00:34,5.34
2012-05-23,01:04,5.37
2012-05-23,01:34,5.39
2012-05-23,02:04,5.43
2012-05-23,02:34,5.45
2012-05-23,03:04,5.48
2012-05-23,03:34,5.5
2012-05-23,04:04,5.56
2012-05-23,04:34,5.66
2012-05-23,05:04,6.02
2012-05-23,05:34,6.73
2012-05-23,06:04,7.72
2012-05-23,06:34,9.26
2012-05-23,07:04,10.98
2012-05-23,07:34,12.59
2012-05-23,08:04,14.1
2012-05-23,08:34,15.24
2012-05-23,09:04,16.24
2012-05-23,09:34,16.92
2012-05-23,10:04,17.63
2012-05-23,10:34,18.08
2012-05-23,11:04,18.06
2012-05-23,11:34,18.57
2012-05-23,12:04,18.9
2012-05-23,12:34,19.35
2012-05-23,13:04,19.07
2012-05-23,13:34,18.84
2012-05-23,14:04,18.6
2012-05-23,14:34,18.23
2012-05-23,15:04,17.79
2012-05-23,15:34,17.76
2012-05-23,16:04,16.94
2012-05-23,16:34,16.48
2012-05-23,17:04,15.72
2012-05-23,17:34,14.66
2012-05-23,18:04,13.5
2012-05-23,18:34,12.17
2012-05-23,19:04,10.77
2012-05-23,19:34,9.37
2012-05-23,20:04,8.07
2012-05-23,20:34,6.96
2012-05-23,21:04,6.15
2012-05-23,21:34,5.63
2012-05-23,22:04,5.31
2012-05-23,22:34,5.16
2012-05-23,23:04,5.08
2012-05-23,23:34,5.06
2012-05-24,00:04,5.06
2012-05-24,00:34,5.08
2012-05-24,01:04,5.14
2012-05-24,01:34,5.18
2012-05-24,02:04,5.21
2012-05-24,02:34,5.24
2012-05-24,03:04,5.28
2012-05-24,03:34,5.32
2012-05-24,04:04,5.4
2012-05-24,04:34,5.53
2012-05-24,05:04,5.87
2012-05-24,05:34,6.69
2012-05-24,06:04,7.82
2012-05-24,06:34,8.65
2012-05-24,07:04,9.25
2012-05-24,07:34,9.78
2012-05-24,08:04,10.61
2012-05-24,08:34,11.4
2012-05-24,09:04,12.16
2012-05-24,09:34,12.82
2012-05-24,10:04,13.51
2012-05-24,10:34,14.63
2012-05-24,11:04,15.89
2012-05-24,11:34,16.92
2012-05-24,12:04,17.97
2012-05-24,12:34,18.52
2012-05-24,13:04,18.63
2012-05-24,13:34,18.86
2012-05-24,14:04,18.7
2012-05-24,14:34,18.47
2012-05-24,15:04,18.26
2012-05-24,15:34,17.99
2012-05-24,16:04,17.23
2012-05-24,16:34,16.68
2012-05-24,17:04,15.88
2012-05-24,17:34,14.8
2012-05-24,18:04,13.6
2012-05-24,18:34,12.21
2012-05-24,19:04,10.82
2012-05-24,19:34,9.44
2012-05-24,20:04,8.1
2012-05-24,20:34,6.95
2012-05-24,21:04,6.13
2012-05-24,21:34,5.61
2012-05-24,22:04,5.24
2012-05-24,22:34,5.02
2012-05-24,23:04,4.93
2012-05-24,23:34,4.91
2012-05-25,00:04,4.92
2012-05-25,00:34,4.92
2012-05-25,01:04,4.96
2012-05-25,01:34,4.99
2012-05-25,02:04,5.02
2012-05-25,02:34,5.06
2012-05-25,03:04,5.09
2012-05-25,03:34,5.11
2012-05-25,04:04,5.16
2012-05-25,04:34,5.3
2012-05-25,05:04,5.59
2012-05-25,05:34,5.93
2012-05-25,06:04,6.59
2012-05-25,06:34,7.68
2012-05-25,07:04,9.17
2012-05-25,07:34,10.82
2012-05-25,08:04,12.57
2012-05-25,08:34,14.06
2012-05-25,09:04,15.27
2012-05-25,09:34,16.17
2012-05-25,10:04,17.02
2012-05-25,10:34,17.47
2012-05-25,11:04,17.8
2012-05-25,11:34,17.72
2012-05-25,12:04,18.05
2012-05-25,12:34,17.93
2012-05-25,13:04,17.87
2012-05-25,13:34,17.6
2012-05-25,14:04,17.54
2012-05-25,14:34,17.12
2012-05-25,15:04,16.73
2012-05-25,15:34,16.69
2012-05-25,16:04,16.15
2012-05-25,16:34,15.49
2012-05-25,17:04,14.63
2012-05-25,17:34,13.65
2012-05-25,18:04,12.59
2012-05-25,18:34,11.36
2012-05-25,19:04,10.03
2012-05-25,19:34,8.8
2012-05-25,20:04,7.71
2012-05-25,20:34,6.73
2012-05-25,21:04,5.99
2012-05-25,21:34,5.5
2012-05-25,22:04,5.19
2012-05-25,22:34,5.03
2012-05-25,23:04,4.99
2012-05-25,23:34,4.96
2012-05-26,00:04,4.96
2012-05-26,00:34,4.98
2012-05-26,01:04,5.01
2012-05-26,01:34,5.06
2012-05-26,02:04,5.12
2012-05-26,02:34,5.15
2012-05-26,03:04,5.17
2012-05-26,03:34,5.21
2012-05-26,04:04,5.23
2012-05-26,04:34,5.35
2012-05-26,05:04,5.71
2012-05-26,05:34,6.24
2012-05-26,06:04,6.88
2012-05-26,06:34,8.18
2012-05-26,07:04,9.95
2012-05-26,07:34,11.48
2012-05-26,08:04,12.77
2012-05-26,08:34,13.94
2012-05-26,09:04,14.74
2012-05-26,09:34,15.49
2012-05-26,10:04,15.96
2012-05-26,10:34,16.27
2012-05-26,11:04,16.79
2012-05-26,11:34,16.9
2012-05-26,12:04,16.91
2012-05-26,12:34,17.08
2012-05-26,13:04,17.32
2012-05-26,13:34,17.04
2012-05-26,14:04,16.89
2012-05-26,14:34,16.8
2012-05-26,15:04,16.57
2012-05-26,15:34,16.11
2012-05-26,16:04,15.57
2012-05-26,16:34,14.97
2012-05-26,17:04,14.17
2012-05-26,17:34,13.33
2012-05-26,18:04,12.34
2012-05-26,18:34,11.23
2012-05-26,19:04,9.99
2012-05-26,19:34,8.78
2012-05-26,20:04,7.72
2012-05-26,20:34,6.71
2012-05-26,21:04,5.99
2012-05-26,21:34,5.49
2012-05-26,22:04,5.18
2012-05-26,22:34,5.02
2012-05-26,23:04,4.95
2012-05-26,23:34,4.94
2012-05-27,00:04,4.94
2012-05-27,00:34,4.97
2012-05-27,01:04,4.98
2012-05-27,01:34,5.05
2012-05-27,02:04,5.09
2012-05-27,02:34,5.13
2012-05-27,03:04,5.21
2012-05-27,03:34,5.22
2012-05-27,04:04,5.26
2012-05-27,04:34,5.43
2012-05-27,05:04,5.82
2012-05-27,05:34,6.37
2012-05-27,06:04,7.08
2012-05-27,06:34,8.32
2012-05-27,07:04,10.1
2012-05-27,07:34,11.56
2012-05-27,08:04,12.99
2012-05-27,08:34,14.15
2012-05-27,09:04,15.05
2012-05-27,09:34,15.73
2012-05-27,10:04,16.22
2012-05-27,10:34,16.7
2012-05-27,11:04,16.89
2012-05-27,11:34,17.35
2012-05-27,12:04,17.2
2012-05-27,12:34,17.6
2012-05-27,13:04,17.32
2012-05-27,13:34,17.56
2012-05-27,14:04,17.38
2012-05-27,14:34,17.31
2012-05-27,15:04,17.16
2012-05-27,15:34,16.67
2012-05-27,16:04,16.22
2012-05-27,16:34,15.61
2012-05-27,17:04,14.78
2012-05-27,17:34,13.74
2012-05-27,18:04,12.45
2012-05-27,18:34,10.92
2012-05-27,19:04,9.55
2012-05-27,19:34,8.39
2012-05-27,20:04,7.32
2012-05-27,20:34,6.45
2012-05-27,21:04,5.8
2012-05-27,21:34,5.32
2012-05-27,22:04,5.02
2012-05-27,22:34,4.85
2012-05-27,23:04,4.75
2012-05-27,23:34,4.72
2012-05-28,00:04,4.75
2012-05-28,00:34,4.72
2012-05-28,01:04,4.73
2012-05-28,01:34,4.75
2012-05-28,02:04,4.77
2012-05-28,02:34,4.81
2012-05-28,03:04,4.87
2012-05-28,03:34,4.89
2012-05-28,04:04,4.91
2012-05-28,04:34,5.03
2012-05-28,05:04,5.37
2012-05-28,05:34,5.89
2012-05-28,06:04,6.57
2012-05-28,06:34,7.72
2012-05-28,07:04,9.46
2012-05-28,07:34,10.97
2012-05-28,08:04,12.34
2012-05-28,08:34,13.53
2012-05-28,09:04,14.43
2012-05-28,09:34,15.15
2012-05-28,10:04,15.77
2012-05-28,10:34,16.27
2012-05-28,11:04,16.68
2012-05-28,11:34,16.78
2012-05-28,12:04,17.12
2012-05-28,12:34,17.05
2012-05-28,13:04,17.17
2012-05-28,13:34,16.62
2012-05-28,14:04,15.91
2012-05-28,14:34,16.15
2012-05-28,15:04,16
2012-05-28,15:34,15.91
2012-05-28,16:04,15.61
2012-05-28,16:34,15.08
2012-05-28,17:04,14.27
2012-05-28,17:34,13.25
2012-05-28,18:04,12.31
2012-05-28,18:34,11.23
2012-05-28,19:04,9.97
2012-05-28,19:34,8.74
2012-05-28,20:04,7.69
2012-05-28,20:34,6.76
2012-05-28,21:04,6.01
2012-05-28,21:34,5.47
2012-05-28,22:04,5.17
2012-05-28,22:34,5.01
2012-05-28,23:04,4.91
2012-05-28,23:34,4.88
2012-05-29,00:04,4.85
2012-05-29,00:34,4.87
2012-05-29,01:04,4.89
2012-05-29,01:34,4.95
2012-05-29,02:04,4.99
2012-05-29,02:34,5.04
2012-05-29,03:04,5.05
2012-05-29,03:34,5.08
2012-05-29,04:04,5.11
2012-05-29,04:34,5.17
2012-05-29,05:04,5.49
2012-05-29,05:34,6.05
2012-05-29,06:04,7.01
2012-05-29,06:34,7.91
2012-05-29,07:04,9.46
2012-05-29,07:34,11.06
2012-05-29,08:04,12.3
2012-05-29,08:34,13.21
2012-05-29,09:04,13.74
2012-05-29,09:34,14.2
2012-05-29,10:04,14.83
2012-05-29,10:34,15.06
2012-05-29,11:04,15.05
2012-05-29,11:34,15.27
2012-05-29,12:04,15.34
2012-05-29,12:34,15.5
2012-05-29,13:04,15.58
2012-05-29,13:34,14.94
2012-05-29,14:04,15.02
2012-05-29,14:34,15.39
2012-05-29,15:04,15.49
2012-05-29,15:34,15.13
2012-05-29,16:04,14.23
2012-05-29,16:34,13.64
2012-05-29,17:04,13.15
2012-05-29,17:34,12.63
2012-05-29,18:04,11.96
2012-05-29,18:34,11.27
2012-05-29,19:04,10.22
2012-05-29,19:34,9.03
2012-05-29,20:04,7.97
2012-05-29,20:34,6.98
2012-05-29,21:04,6.25
2012-05-29,21:34,5.74
2012-05-29,22:04,5.4
2012-05-29,22:34,5.23
2012-05-29,23:04,5.12
2012-05-29,23:34,5.1
2012-05-30,00:04,5.1
2012-05-30,00:34,5.1
2012-05-30,01:04,5.14
2012-05-30,01:34,5.17
2012-05-30,02:04,5.21
2012-05-30,02:34,5.28
2012-05-30,03:04,5.36
2012-05-30,03:34,5.4
2012-05-30,04:04,5.44
2012-05-30,04:34,5.56
2012-05-30,05:04,5.87
2012-05-30,05:34,6.34
2012-05-30,06:04,7.02
2012-05-30,06:34,8.14
2012-05-30,07:04,9.6
2012-05-30,07:34,10.95
2012-05-30,08:04,12.08
2012-05-30,08:34,13.15
2012-05-30,09:04,14.16
2012-05-30,09:34,14.69
2012-05-30,10:04,15.23
2012-05-30,10:34,15.51
2012-05-30,11:04,15.49
2012-05-30,11:34,15.82
2012-05-30,12:04,15.76
2012-05-30,12:34,15.23
2012-05-30,13:04,15.51
2012-05-30,13:34,15.75
2012-05-30,14:04,15.43
2012-05-30,14:34,15.5
2012-05-30,15:04,15.53
2012-05-30,15:34,15.25
2012-05-30,16:04,14.77
2012-05-30,16:34,13.9
2012-05-30,17:04,12.76
2012-05-30,17:34,12.23
2012-05-30,18:04,11.75
2012-05-30,18:34,10.74
2012-05-30,19:04,9.67
2012-05-30,19:34,8.72
2012-05-30,20:04,7.74
2012-05-30,20:34,6.83
2012-05-30,21:04,6.14
2012-05-30,21:34,5.69
2012-05-30,22:04,5.44
2012-05-30,22:34,5.26
2012-05-30,23:04,5.19
2012-05-30,23:34,5.14
2012-05-31,00:04,5.14
2012-05-31,00:34,5.17
2012-05-31,01:04,5.21
2012-05-31,01:34,5.24
2012-05-31,02:04,5.27
2012-05-31,02:34,5.29
2012-05-31,03:04,5.36
2012-05-31,03:34,5.35
2012-05-31,04:04,5.34
2012-05-31,04:34,5.41
2012-05-31,05:04,5.64
2012-05-31,05:34,6
2012-05-31,06:04,6.76
2012-05-31,06:34,7.76
2012-05-31,07:04,8.86
2012-05-31,07:34,9.97
2012-05-31,08:04,10.86
2012-05-31,08:34,11.6
2012-05-31,09:04,12.47
2012-05-31,09:34,13.28
2012-05-31,10:04,13.84
2012-05-31,10:34,14.19
2012-05-31,11:04,14.84
2012-05-31,11:34,15.42
2012-05-31,12:04,15.31
2012-05-31,12:34,15.64
2012-05-31,13:04,15.55
2012-05-31,13:34,15.77
2012-05-31,14:04,15.46
2012-05-31,14:34,15.46
2012-05-31,15:04,14.79
2012-05-31,15:34,14.69
2012-05-31,16:04,13.99
2012-05-31,16:34,12.83
2012-05-31,17:04,12.08
2012-05-31,17:34,10.82
2012-05-31,18:04,9.59
2012-05-31,18:34,8.61
2012-05-31,19:04,7.67
2012-05-31,19:34,6.93
2012-05-31,20:04,6.38
2012-05-31,20:34,5.92
2012-05-31,21:04,5.59
2012-05-31,21:34,5.37
2012-05-31,22:04,5.25
2012-05-31,22:34,5.16
2012-05-31,23:04,5.12
2012-05-31,23:34,5.13
2012-06-01,00:04,5.14
2012-06-01,00:34,5.14
2012-06-01,01:04,5.16
2012-06-01,01:34,5.16
2012-06-01,02:04,5.19
2012-06-01,02:34,5.19
2012-06-01,03:04,5.19
2012-06-01,03:34,5.2
2012-06-01,04:04,5.17
2012-06-01,04:34,5.25
2012-06-01,05:04,5.36
2012-06-01,05:34,5.55
2012-06-01,06:04,5.79
2012-06-01,06:34,6.32
2012-06-01,07:04,7.08
2012-06-01,07:34,8.62
2012-06-01,08:04,9.9
2012-06-01,08:34,11.12
2012-06-01,09:04,12.41
2012-06-01,09:34,13.44
2012-06-01,10:04,13.51
2012-06-01,10:34,13.07
2012-06-01,11:04,12.8
2012-06-01,11:34,12.42
2012-06-01,12:04,12.09
2012-06-01,12:34,11.23
2012-06-01,13:04,11.33
2012-06-01,13:34,11.5
2012-06-01,14:04,11.99
2012-06-01,14:34,12.08
2012-06-01,15:04,12.11
2012-06-01,15:34,12.35
2012-06-01,16:04,12.37
2012-06-01,16:34,12.29
2012-06-01,17:04,12.49
2012-06-01,17:34,11.78
2012-06-01,18:04,10.71
2012-06-01,18:34,9.9
2012-06-01,19:04,9
2012-06-01,19:34,8.06
2012-06-01,20:04,7.25
2012-06-01,20:34,6.53
2012-06-01,21:04,6
2012-06-01,21:34,5.59
2012-06-01,22:04,5.4
2012-06-01,22:34,5.34
2012-06-01,23:04,5.29
2012-06-01,23:34,5.23
2012-06-02,00:04,5.24
2012-06-02,00:34,5.22
2012-06-02,01:04,5.22
2012-06-02,01:34,5.26
2012-06-02,02:04,5.27
2012-06-02,02:34,5.33
2012-06-02,03:04,5.37
2012-06-02,03:34,5.34
2012-06-02,04:04,5.37
2012-06-02,04:34,5.33
2012-06-02,05:04,5.46
2012-06-02,05:34,5.68
2012-06-02,06:04,5.83
2012-06-02,06:34,6.18
2012-06-02,07:04,6.71
2012-06-02,07:34,7.23
2012-06-02,08:04,7.73
2012-06-02,08:34,8.21
2012-06-02,09:04,8.8
2012-06-02,09:34,10.09
2012-06-02,10:04,11.43
2012-06-02,10:34,12.51
2012-06-02,11:04,12.85
2012-06-02,11:34,13.25
2012-06-02,12:04,13.26
2012-06-02,12:34,13.94
2012-06-02,13:04,14.32
2012-06-11,08:04,8.44
2012-06-11,08:34,9.17
2012-06-11,09:04,9.02
2012-06-11,09:34,8.73
2012-06-11,10:04,8.71
2012-06-11,10:34,9.05
2012-06-11,11:04,9.34
2012-06-11,11:34,9.71
2012-06-11,12:04,9.99
2012-06-11,12:34,10.18
2012-06-11,13:04,10.26
2012-06-11,13:34,10.15
2012-06-11,14:04,9.96
2012-06-11,14:34,9.68
2012-06-11,15:04,9.31
2012-06-11,15:34,9
2012-06-11,16:04,8.54
2012-06-11,16:34,8.18
2012-06-11,17:04,7.75
2012-06-11,17:34,7.44
2012-06-11,18:04,7.16
2012-06-11,18:34,7.03
2012-06-11,19:04,6.91
2012-06-11,19:34,6.71
2012-06-11,20:04,6.55
2012-06-11,20:34,6.31
2012-06-11,21:04,6.08
2012-06-11,21:34,5.94
2012-06-11,22:04,5.85
2012-06-11,22:34,5.83
2012-06-11,23:04,5.84
2012-06-11,23:34,5.84
2012-06-12,00:04,5.84
2012-06-12,00:34,5.84
2012-06-12,01:04,5.87
2012-06-12,01:34,5.89
2012-06-12,02:04,5.89
2012-06-12,02:34,5.93
2012-06-12,03:04,5.95
2012-06-12,03:34,5.98
2012-06-12,04:04,5.99
2012-06-12,04:34,6.04
2012-06-12,05:04,6.13
2012-06-12,05:34,6.26
2012-06-12,06:04,6.42
2012-06-12,06:34,6.61
2012-06-12,07:04,6.8
2012-06-12,07:34,7.06
2012-06-12,08:04,7.54
2012-06-12,08:34,8.09
2012-06-12,09:04,8.59
2012-06-12,09:34,9.27
2012-06-12,10:04,9.95
2012-06-12,10:34,10.55
2012-06-12,11:04,10.95
2012-06-12,11:34,11.15
2012-06-12,12:04,11.19
2012-06-12,12:34,11.01
2012-06-12,13:04,10.84
2012-06-12,13:34,10.54
2012-06-12,14:04,10.59
2012-06-12,14:34,10.56
2012-06-12,15:04,10.15
2012-06-12,15:34,9.85
2012-06-12,16:04,9.91
2012-06-12,16:34,10.1
2012-06-12,17:04,10.32
2012-06-12,17:34,10.34
2012-06-12,18:04,10.08
2012-06-12,18:34,9.74
2012-06-12,19:04,9.31
2012-06-12,19:34,8.74
2012-06-12,20:04,8.15
2012-06-12,20:34,7.58
2012-06-12,21:04,7.12
2012-06-12,21:34,6.72